This is the latest recevied weather packets stored in our database for station/object SV2ASS-2. If no packets are shown the sender has not sent any weather packets the latest 1 day(s).
| Time | Temp. | Humidity | Pressure | Rain* | Wind** | Luminosity | Snow |
|---|---|---|---|---|---|---|---|
| 1777818465 | 17.78° C | 32% | 1020 hPa | - | - | - | - |
| 1777817565 | 18.33° C | 31% | 1020.1 hPa | - | - | - | - |
| 1777816665 | 17.78° C | 28% | 1020.3 hPa | - | - | - | - |
| 1777815764 | 17.78° C | 29% | 1020.2 hPa | - | - | - | - |
| 1777814864 | 16.67° C | 28% | 1020.3 hPa | - | - | - | - |
| 1777813964 | 18.33° C | 28% | 1020.4 hPa | - | - | - | - |
| 1777813064 | 17.22° C | 29% | 1020.6 hPa | - | - | - | - |
| 1777812164 | 17.22° C | 31% | 1020.6 hPa | - | - | - | - |
| 1777811264 | 16.67° C | 30% | 1020.8 hPa | - | - | - | - |
| 1777810364 | 17.22° C | 29% | 1020.9 hPa | - | - | - | - |
| 1777809464 | 17.22° C | 30% | 1021 hPa | - | - | - | - |
| 1777808564 | 15.56° C | 32% | 1021.2 hPa | - | - | - | - |
| 1777807664 | 16.11° C | 29% | 1021.1 hPa | - | - | - | - |
| 1777806764 | 16.67° C | 32% | 1021.3 hPa | - | - | - | - |
| 1777805863 | 16.11° C | 32% | 1021.3 hPa | - | - | - | - |
| 1777804963 | 14.44° C | 31% | 1021.4 hPa | - | - | - | - |
| 1777804063 | 15° C | 30% | 1021.4 hPa | - | - | - | - |
| 1777803163 | 14.44° C | 34% | 1021.5 hPa | - | - | - | - |
| 1777802263 | 14.44° C | 31% | 1021.5 hPa | - | - | - | - |
| 1777801362 | 15° C | 32% | 1021.7 hPa | - | - | - | - |
| 1777800462 | 14.44° C | 31% | 1021.8 hPa | - | - | - | - |
| 1777799562 | 13.33° C | 33% | 1021.9 hPa | - | - | - | - |
| 1777798665 | 13.89° C | 34% | 1022 hPa | - | - | - | - |
| 1777797765 | 13.33° C | 37% | 1022.1 hPa | - | - | - | - |
| 1777796865 | 12.78° C | 35% | 1022.1 hPa | - | - | - | - |
* Rain since midnight (hover to see other rain measurements)
** Current wind speed in m/s (hover to see current wind gust speed)